Location: Kershaw
(34.5481°N, 80.5823°W)
Time: 20:54:04
(UTC+00:00)

Vanguard 2 Rocket - Pass Details

Date: 05 October 2022
Orbit: 555 x 3321 km, 32.9° (Epoch: 28 November)

Event Time Altitude Azimuth Distance (km) Brightness Sun altitude
Exits shadow 08:49:56 14° 147° (SSE) 1,956 8.7 -31.4°
Drops below altitude 10° 08:50:34 10° 143° (SE) 2,161 9.0 -31.2°
Sets 08:52:40 0° 133° (SE) 2,917 9.9 -30.8°
